Location: Gro�wechsungen
(51.4926°N, 10.6901°E)
Time: 14:28:06
(UTC+00:00)

Cosmos 2082 Rocket - Pass Details

Date: 21 January 2021
Orbit: 832 x 854 km, 71.0° (Epoch: 04 March)

Event Time Altitude Azimuth Distance (km) Brightness Sun altitude
Rises 17:33:12 0° 330° (NNW) 3,437 5.6 -16.0°
Reaches altitude 10° 17:36:10 10° 344° (NNW) 2,499 4.7 -16.5°
Maximum altitude 17:40:45 24° 37° (NE) 1,710 3.4 -17.2°
Enters shadow 17:41:30 23° 49° (NE) 1,735 3.3 -17.3°
